Other Public Products
Issued by NWS Grand Forks, ND

Home | Current Version | Previous Version | Text Only | Print | Product List | Glossary Off
Versions: 1 2 3 4 5 6 7 8 9 10 11 12 13 14 15 16 17 18 19 20 21 22 23 24 25 26 27 28 29 30 31 32 33 34 35 36 37 38 39 40 41 42 43 44 45 46 47 48 49 50

000
FPUS83 KFGF 251610
OPUFGF
PRAIRIE TO PINES WEATHER ROUNDUP
NATIONAL WEATHER SERVICE EASTERN NORTH DAKOTA/GRAND FORKS ND
1100 AM CDT FRI JUL 25 2014

 **SATELLITE DATA USED TO AUGMENT SKY COVER AT AUTOMATED STATIONS**
 *****  WEATHER ACROSS EASTERN NORTH DAKOTA  *****

CITY           SKY/WX    TMP DP  RH WIND       PRES   REMARKS
GRAND FORKS    CLOUDY    72  64  76 W3        29.75F
GRAND FORKS AF CLOUDY    74  68  81 SW6       29.77S
GRAND CITY NWS   N/A     72 N/A N/A W5          N/A
BUXTON         NOT AVBL
DEVILS LAKE    PTSUNNY   72  63  73 NW17      29.78R
FARGO          CLOUDY    71  64  78 W6        29.77S
WAHPETON ARPT  CLOUDY    70  63  78 S8        29.76S
$$

 *****  WEATHER ACROSS CENTRAL AND WESTERN NORTH DAKOTA  *****

CITY           SKY/WX    TMP DP  RH WIND       PRES   REMARKS
JAMESTOWN      CLOUDY    71  65  81 N8        29.79S
BISMARCK       SUNNY     76  46  34 NW21      29.85S
MINOT          SUNNY     72  51  47 SW14      29.83S
MINOT AFB      SUNNY     71  57  60 W12       29.82F
GARRISON         N/A     72  52  49 W8        29.86F
WILLISTON      SUNNY     71  46  40 SW9G22    29.86F
DICKINSON      SUNNY     70  46  42 W9        29.93R
HETTINGER      SUNNY     72  44  36 NW12      29.96F
$$

 *****  OTHER OBSERVATIONS NORTHEAST NORTH DAKOTA  *****

CITY           SKY/WX    TMP DP  RH WIND       PRES   REMARKS
WALHALLA         N/A     75  72  88 W6          N/A
LANGDON        PTSUNNY   73  66  78 W15       29.76S
CAVALIER       FAIR      77  66  69 SE5       29.72F
GRAFTON        FAIR      75  66  73 W3        29.73F
CANDO          FAIR      72  55  56 NW15G21   29.80R
FORT TOTTEN    NOT AVBL
ROLLA          FAIR      68  50  52 NW14G22   29.81S
RUGBY          FAIR      68  57  68 NW10      29.81S
 ***** THE ABOVE OBSERVATIONS ARE NON NWS ARE NOT QUALITY
        CONTROLLED AND MAY MIS-REPORT RAIN FOR SNOW...
$$

 *****  OTHER OBSERVATIONS SOUTHEAST NORTH DAKOTA *****

CITY           SKY/WX    TMP DP  RH WIND       PRES   REMARKS
COOPERSTOWN    NOT AVBL
VALLEY CITY    CLOUDY    68  68 100 NW10      29.79S
OAKES          NOT AVBL
GWINNER        CLOUDY    72  72 100 NW10      29.79R
SHEYENNE NWR     N/A     70  66  87 NW6       29.95S
BUFFALO        NOT AVBL
WYNDMERE       NOT AVBL
 ***** THE ABOVE OBSERVATIONS ARE NON NWS ARE NOT QUALITY
       CONTROLLED AND MAY MIS-REPORT RAIN FOR SNOW...
$$

  *****  WEATHER ACROSS NORTHERN MINNESOTA  *****

CITY           SKY/WX    TMP DP  RH WIND       PRES   REMARKS
FLAG ISLAND    CLOUDY    68  63  83 S7        29.76S
WARROAD        CLOUDY    70  64  83 SW5       29.78S
ROSEAU         MOSUNNY   70  63  78 SW3       29.77F
HALLOCK        MOSUNNY   73  64  73 CALM      29.73F
THF RVR FALLS  CLOUDY    68  63  83 SW7       29.78F
HALSTAD          N/A     71  64  80 W2          N/A
FOSSTON        CLOUDY    72  63  73 SW7       29.79F
BAUDETTE       CLOUDY    69  63  81 W6        29.79S
WASKISH        CLOUDY    70  63  78 SW6       29.79S
CROOKSTON      PTSUNNY   70  64  83 SW7       29.78S
$$
  *****  WEATHER ACROSS CENTRAL AND WEST MINNESOTA  *****

CITY           SKY/WX    TMP DP  RH WIND       PRES   REMARKS
BEMIDJI        PTSUNNY   68  62  79 W10       29.79R
PARK RAPIDS    CLOUDY    71  63  75 W12       29.80R
WADENA         CLOUDY    70  64  83 S15       29.76F
DETROIT LAKES  PTSUNNY   72  64  78 SE6       29.80R
MOORHEAD       CLOUDY    72  70  94 SW3       29.78S
FERGUS FALLS   CLOUDY    73  64  73 S15       29.75F
ELBOW LAKE     PTSUNNY   73  66  81 S13       29.77S
MORRIS MN      SUNNY     73  66  78 S13       29.76S
STAPLES        CLOUDY    70  63  78 S13       29.77F
WHEATON        NOT AVBL
$$
  *****  WEATHER ELSEWHERE ACROSS MINNESOTA  *****

CITY           SKY/WX    TMP DP  RH WIND       PRES   REMARKS
DULUTH         CLOUDY    65  58  78 SE3       29.82R
INTRNTL FALLS  PTSUNNY   72  62  71 SW7       29.79S
ELY            PTSUNNY   70  61  73 CALM      29.80F
CLOQUET        CLOUDY    66  63  88 S3        29.80R
BRAINERD       PTSUNNY   70  64  81 SW16      29.78F
HIBBING        CLOUDY    69  61  75 S5        29.80S
ALEXANDRIA     CLOUDY    72  65  78 S14       29.80F
SAINT CLOUD    PTSUNNY   75  65  70 SW12G20   29.80F
MINNEAPOLIS    CLOUDY    70  64  81 S10       29.81F
$$

  *****  WEATHER ACROSS SOUTH DAKOTA  *****

CITY           SKY/WX    TMP DP  RH WIND       PRES   REMARKS
SIOUX FALLS    MOSUNNY   75  67  76 S9        29.78R
BROOKINGS      NOT AVBL
WATERTOWN      PTSUNNY   74  66  76 S5        29.78R
HURON          SUNNY     78  67  68 MISG      29.76S
SISSETON         N/A     74  69  85 S5        29.74S
ABERDEEN       CLOUDY    68  66  93 N15       29.78R
MITCHELL       SUNNY     78  68  71 S7        29.77R
PIERRE         PTSUNNY   77  67  71 NW22G29   29.84R
MOBRIDGE       SUNNY     76  64  66 NW16G24   29.82R
RAPID CITY     SUNNY     73  41  31 N12       30.00F
$$

  *****  SOME WEATHER IN NEARBY STATES *****

CITY           SKY/WX    TMP DP  RH WIND       PRES   REMARKS
GLASGOW MT     SUNNY     73  37  27 W22G31    29.84F
GREAT FALLS MT SUNNY     66  37  34 SW25G36   29.95R
CHEYENNE WY    PTSUNNY   72  53  51 NE8       30.17R
SCOTTSBLUFF NE PTSUNNY   79  44  28 NE10      30.03F
OMAHA NE       SUNNY     80  67  64 SE15      29.78F
DES MOINES IA  CLOUDY    68  59  73 SE15      29.90F
DAVENPORT IA   RAIN      62  60  93 W10       30.09R FOG
CHICAGO IL     CLOUDY    70  54  56 S13       30.01F
EAU CLAIRE WI  CLOUDY    66  63  90 SW8G22    29.84R
LA CROSSE WI   CLOUDY    67  60  78 S12       29.89F
$$

  *****  SOME NATIONAL WEATHER *****

CITY           SKY/WX    TMP DP  RH WIND       PRES   REMARKS
LA GUARDIA NY  MOSUNNY   77  54  44 VRB6      30.01S
RALEIGH NC     PTSUNNY   79  66  65 E8        30.08S
ATLANTA GA     MOSUNNY   82  69  64 NW5       30.05F
NEW ORLEANS LA MOSUNNY   88  75  65 W5        30.05S HX  97
OKLAHOMA CITY  SUNNY     89  69  51 S13       29.98F HX  93
ALBUQUERQUE NM SUNNY     82  42  24 S14       30.23F
SALT LAKE CITY MOSUNNY   77  42  28 NW6       30.06R
LOS ANGELES CA PTSUNNY   75  64  68 SE6       29.90R
BOISE ID       SUNNY     65  39  38 VRB3      30.10F
SEATTLE WA     MOSUNNY   63  51  65 N6        30.17F
$$

*** WEATHER ACROSS MANITOBA...SASKATCHEWAN AND ONTARIO ***
                ***ONTARIO***

CITY           SKY/WX    TMP DP  RH WIND       PRES   REMARKS
GERALDTON      MOSUNNY   73  54  49 SW15      29.80S
THUNDER BAY    PTSUNNY   68  59  73 E7        29.81F
SIOUX LOOKOUT  PTSUNNY   73  61  64 W6        29.81R
TORONTO        MOSUNNY   73  48  40 W10G22    30.04F
BIG TROUT LK   SUNNY     63  43  48 NW3       29.77S
PICKLE LAKE    PTSUNNY   75  52  43 W7        29.77F
DRYDEN         PTSUNNY   70  59  68 CALM      29.81R
KENORA         PTSUNNY   70  63  78 SW6       29.80S
$$
                *** MANITOBA***

CITY           SKY/WX    TMP DP  RH WIND       PRES   REMARKS
BRANDON        MOSUNNY   73  50  43 W20       29.76R
DAUPHIN        PTSUNNY   70  59  68 W10       29.69F
ISLAND LAKE    PTSUNNY   72  59  64 NE5       29.77S
PILOT MOUND      N/A     70  54  56 NW15G22     N/A
THE PAS        PTSUNNY   72  64  78 SE16      29.63F
THOMPSON       SUNNY     68  52  56 E9        29.78S
WINNIPEG       MOSUNNY   73  64  73 S9        29.70F
LYNN LAKE      SUNNY     72  52  49 E15G22    29.75S
CHURCHILL      PTSUNNY   48  46  93 E8G17     29.90R
GILLAM         PTSUNNY   64  50  59 NE6       29.84R
$$
                ***SASKATCHEWAN***

CITY           SKY/WX    TMP DP  RH WIND       PRES   REMARKS
ESTEVAN        SUNNY     66  52  59 W10       29.81F
KINDERSLEY     LGT RAIN  54  50  87 SW18G29   29.53F
LLOYDMINSTER   LGT RAIN  55  52  88 N9        29.43S FOG
PRINCE ALBERT  PTSUNNY   61  54  77 SE7       29.57S
REGINA         SUNNY     64  52  63 SW17      29.73S


USA.gov is the U.S. government's official web portal to all federal, state and local government web resources and services.